Hourly Data Report for October 22, 2014

All times are specified in Local Standard Time (LST). Add 1 hour to adjust for Daylight Saving Time where and when it is observed.

PANGNIRTUNG
NUNAVUT

66°08'36.300" N
65°42'40.500" W
22.60 m
2403049
71826
WXP

Download Data

Hourly Data (October 2014)
Hourly Data Report for October 22, 2014
Temp Definition
°C
Dew Point Temp Definition
°C
Rel Hum Definition
%
Wind Dir Definition
10's deg

Wind Spd Definition
km/h
Visibility Definition
km
Stn Press Definition
kPa
Hmdx Definition


Wind Chill Definition


Weather Definition


TIME
00:00 -5.2 -7.5 84 25 4   100.36   -7 LegendNANA
01:00 -5.0 -7.4 83 22 7   100.36   -8 LegendNANA
02:00 -5.1 -7.8 81 19 6   100.40   -8 LegendNANA
03:00 -4.9 -7.0 85 16 3   100.34   -6 LegendNANA
04:00 -4.4 -6.3 87 24 1   100.30   -5 LegendNANA
05:00 -4.4 -6.3 87 0 1   100.30   -5 LegendNANA
06:00 -4.4 -5.6 91 0 1   100.22   -5 LegendNANA
07:00 -4.5 -5.0 96 8 6   100.14   -7 LegendNANA
08:00 -4.1 -4.9 95 4 12   100.01   -9 LegendNANA
09:00 -4.2 -4.8 96 5 13   99.94   -9 LegendNANA
10:00 -4.2 -4.6 97 4 15   99.81   -10 LegendNANA
11:00 -3.8 -4.7 93 6 15   99.69   -9 LegendNANA
12:00 -3.8 -4.6 94 6 12   99.62   -8 LegendNANA
13:00 -2.9 -5.3 84 6 8   99.56   -6 LegendNANA
14:00 -3.5 -5.7 85 11 7   99.53   -6 LegendNANA
15:00 -3.4 -6.0 82 8 4   99.58   -5 LegendNANA
16:00 -3.4 -6.5 79 3 6   99.60   -6 LegendNANA
17:00 -5.1 -8.2 79 11 11   99.66   -10 LegendNANA
18:00 -4.6 -7.8 78 11 5   99.69   -7 LegendNANA
19:00 -5.6 -9.2 76 10 6   99.71   -8 LegendNANA
20:00 -4.4 -7.8 77 10 7   99.76   -8 LegendNANA
21:00 -4.8 -8.2 77 9 12   99.76   -10 LegendNANA
22:00 -4.7 -8.3 75 9 2   99.79   -6 LegendNANA
23:00 -4.1 -7.9 75 13 4   99.80   -6 LegendNANA

Notes on Data Quality.

Legend

  • E = Estimated
  • M = Missing
  • NA = Not Available
  • ‡ = Partner data that is not subject to review by the National Climate Archives
Date modified: